Погода в Приволье

Россия / Ульяновская область     53°34′32″N   47°50′56″E
темп.,
°C
ветер,
м/с
пор.,
м/с
влажн.,
%
обл.,
%
осадки,
мм/ч
давл.,
гПа
погр.,
м
16 апреля, пт
пт1601:00+12ююв1156100 0.0 101810
04:00+11всв1155100 0.0 101810
07:00+10всв2262100 0.0 101811
10:00+15всв3651100 0.0 1019300
13:00+18в4542100 0.0 1019759
16:00+18всв4541100 0.0 10191079
19:00+15св375898 0.0 1020149
22:00+11св4108397 0.0 1021287
17 апреля, сб
сб1701:00+9св4109013 0.0 1021243
04:00+7св38945 0.0 1023192
07:00+7св4109517 0.0 1023284
10:00+11всв68705 0.0 1023521
13:00+14всв68575 0.0 1022816
16:00+15всв67505 0.0 10221182
19:00+13св611530 0.0 1021533
22:00+9всв513550 0.0 1022389
18 апреля, вс
вс1801:00+7всв5126065 0.0 1022314
04:00+6всв41063100 0.1 1022322
07:00+6св3764100 0.0 1022334
10:00+6св4867100 0.2 1022365
13:00+6св4977100 2.1 1022430
16:00+6ссв41077100 5.6 1023499
19:00+7ссв3676100 0.0 1022146
22:00+7ссв2575100 0.0 1022106
19 апреля, пн
пн1901:00+6всв61375100 0.0 1023444
04:00+5всв61277100 0.0 1024416
07:00+3всв6126491 0.0 1025469
10:00+5всв7105838 0.0 1026681
13:00+8всв895839 0.0 10261231
16:00+8всв8954100 0.0 10251553
19:00+6всв7106592 0.0 10271065
22:00+5в7116394 0.0 10271072
20 апреля, вт
вт2001:00+3в5126718 0.0 1027723
04:00+2в614655 0.0 1028749
07:00+1в713592 0.0 1030798
10:00+4вюв91349100 0.0 1029961
13:00+7вюв9124187 0.0 10291227
16:00+8вюв91437100 0.0 10271327
19:00+6вюв91543100 0.0 10271132
22:00+4юв91651100 0.0 1028917